User: anonymous   Login
Location: Unspecified
(0.0000°N, 0.0000°E)
Time: 13:45:53
(UTC+00:00)
Language:

SO-67 - Orbit

View from above orbital plane
View from above orbital plane
View from above satellite
View from above satellite

Ground track
Ground track

The orbit data is extracted from the following two-line orbital elements,

1 35870U 09049F   14295.13453581  .00016865  00000-0  49645-3 0  6259
2 35870 097.1538 312.5042 0002757 057.4218 338.3462 15.35124865283511
Epoch (UTC): 22 October 2014 03:13:43
Eccentricity: 0.0002757
inclination: 97.1538°
perigee height: 458 km
apogee height: 462 km
right ascension of ascending node: 312.5042°
argument of perigee: 57.4218°
revolutions per day: 15.35124865
mean anomaly at epoch: 338.3462°
orbit number at epoch: 28351

The dashed part of the orbit path shows where the satellite is in the earth's shadow,  

DLR